Time,TemperatureF,DewpointF,PressureIn,WindDirection,WindDirectionDegrees,WindSpeedMPH,WindSpeedGustMPH,Humidity,HourlyPrecipIn,Conditions,Clouds,dailyrainin,SoftwareType,DateUTC
2013-03-07 00:01:00,25.0,17.0,30.29,SE,134,3.0,3.0,70,0.00,,,0.00,,2013-03-07 06:01:00,
2013-03-07 00:11:00,25.0,17.0,30.29,SE,134,3.0,3.0,70,0.00,,,0.00,,2013-03-07 06:11:00,
2013-03-07 00:21:00,25.0,17.0,30.29,ESE,111,4.0,6.0,71,0.00,,,0.00,,2013-03-07 06:21:00,
2013-03-07 00:31:00,24.0,16.0,30.29,East,91,3.0,6.0,72,0.00,,,0.00,,2013-03-07 06:31:00,
2013-03-07 00:42:00,24.0,16.0,30.27,SE,139,4.0,5.0,72,0.00,,,0.00,,2013-03-07 06:42:00,
2013-03-07 00:51:00,24.0,16.0,30.27,SE,139,4.0,5.0,72,0.00,,,0.00,,2013-03-07 06:51:00,
2013-03-07 01:01:00,24.0,16.0,30.29,SE,137,2.0,4.0,72,0.00,,,0.00,,2013-03-07 07:01:00,
2013-03-07 01:11:00,24.0,16.0,30.29,SE,137,2.0,4.0,72,0.00,,,0.00,,2013-03-07 07:11:00,
2013-03-07 01:21:00,24.0,17.0,30.28,SE,127,3.0,7.0,73,0.00,,,0.00,,2013-03-07 07:21:00,
2013-03-07 01:32:00,24.0,17.0,30.29,East,81,2.0,4.0,73,0.00,,,0.00,,2013-03-07 07:32:00,
2013-03-07 01:42:00,24.0,17.0,30.29,East,81,2.0,4.0,73,0.00,,,0.00,,2013-03-07 07:42:00,
2013-03-07 01:52:00,24.0,17.0,30.29,ESE,112,3.0,4.0,73,0.00,,,0.00,,2013-03-07 07:52:00,
2013-03-07 02:02:00,24.0,17.0,30.29,ESE,103,1.0,3.0,73,0.00,,,0.00,,2013-03-07 08:02:00,
2013-03-07 02:12:00,24.0,17.0,30.29,ESE,103,1.0,3.0,73,0.00,,,0.00,,2013-03-07 08:12:00,
2013-03-07 02:22:00,24.0,17.0,30.28,ESE,119,3.0,6.0,74,0.00,,,0.00,,2013-03-07 08:22:00,
2013-03-07 02:32:00,24.0,17.0,30.31,East,80,5.0,6.0,73,0.00,,,0.00,,2013-03-07 08:32:00,
2013-03-07 02:43:00,24.0,17.0,30.31,East,80,5.0,6.0,73,0.00,,,0.00,,2013-03-07 08:43:00,
2013-03-07 02:54:00,23.0,16.0,30.27,SE,125,2.0,6.0,74,0.00,,,0.00,,2013-03-07 08:54:00,
2013-03-07 03:03:00,23.0,16.0,30.27,East,95,3.0,7.0,74,0.00,,,0.00,,2013-03-07 09:03:00,
2013-03-07 03:12:00,23.0,16.0,30.27,East,95,3.0,7.0,74,0.00,,,0.00,,2013-03-07 09:12:00,
2013-03-07 03:23:00,23.0,16.0,30.27,East,97,3.0,7.0,75,0.00,,,0.00,,2013-03-07 09:23:00,
2013-03-07 03:32:00,23.0,16.0,30.26,East,87,7.0,8.0,75,0.00,,,0.00,,2013-03-07 09:32:00,
2013-03-07 03:42:00,23.0,16.0,30.26,East,87,7.0,8.0,75,0.00,,,0.00,,2013-03-07 09:42:00,
2013-03-07 03:53:00,23.0,16.0,30.28,ESE,111,6.0,6.0,75,0.00,,,0.00,,2013-03-07 09:53:00,
2013-03-07 04:02:00,23.0,16.0,30.28,ESE,111,6.0,6.0,75,0.00,,,0.00,,2013-03-07 10:02:00,
2013-03-07 04:12:00,23.0,16.0,30.28,ESE,111,6.0,6.0,75,0.00,,,0.00,,2013-03-07 10:12:00,
2013-03-07 04:23:00,23.0,16.0,30.26,SE,140,3.0,7.0,75,0.00,,,0.00,,2013-03-07 10:23:00,
2013-03-07 04:32:00,23.0,16.0,30.24,SE,131,5.0,9.0,74,0.00,,,0.00,,2013-03-07 10:32:00,
2013-03-07 04:43:00,23.0,16.0,30.24,SE,131,5.0,9.0,74,0.00,,,0.00,,2013-03-07 10:43:00,
2013-03-07 05:02:00,23.0,16.0,30.27,SE,143,4.0,5.0,75,0.00,,,0.00,,2013-03-07 11:02:00,
2013-03-07 05:12:00,23.0,16.0,30.27,SE,143,4.0,5.0,75,0.00,,,0.00,,2013-03-07 11:12:00,
2013-03-07 05:23:00,23.0,16.0,30.27,ESE,117,3.0,7.0,75,0.00,,,0.00,,2013-03-07 11:23:00,
2013-03-07 05:33:00,23.0,16.0,30.26,SE,130,5.0,9.0,75,0.00,,,0.00,,2013-03-07 11:33:00,
2013-03-07 05:42:00,23.0,16.0,30.26,SE,130,5.0,9.0,75,0.00,,,0.00,,2013-03-07 11:42:00,
2013-03-07 05:54:00,23.0,16.0,30.25,SE,125,6.0,9.0,75,0.00,,,0.00,,2013-03-07 11:54:00,
2013-03-07 06:02:00,23.0,17.0,30.26,ESE,119,3.0,10.0,76,0.00,,,0.00,,2013-03-07 12:02:00,
2013-03-07 06:12:00,23.0,17.0,30.26,ESE,119,3.0,10.0,76,0.00,,,0.00,,2013-03-07 12:12:00,
2013-03-07 06:22:00,23.0,16.0,30.27,ESE,115,12.0,12.0,75,0.00,,,0.00,,2013-03-07 12:22:00,
2013-03-07 06:33:00,23.0,16.0,30.27,ESE,121,6.0,8.0,75,0.00,,,0.00,,2013-03-07 12:33:00,
2013-03-07 06:42:00,23.0,16.0,30.27,ESE,121,6.0,8.0,75,0.00,,,0.00,,2013-03-07 12:42:00,
2013-03-07 06:53:00,23.0,17.0,30.28,ESE,121,5.0,9.0,76,0.00,,,0.00,,2013-03-07 12:53:00,
2013-03-07 07:12:00,23.0,17.0,30.27,ESE,115,5.0,8.0,76,0.00,,,0.00,,2013-03-07 13:12:00,
2013-03-07 07:22:00,23.0,17.0,30.27,ESE,113,8.0,12.0,76,0.00,,,0.00,,2013-03-07 13:22:00,
2013-03-07 07:32:00,25.0,18.0,30.28,East,96,7.0,9.0,74,0.00,,,0.00,,2013-03-07 13:32:00,
2013-03-07 07:42:00,25.0,18.0,30.28,East,96,7.0,9.0,74,0.00,,,0.00,,2013-03-07 13:42:00,
2013-03-07 07:53:00,27.0,19.0,30.28,ESE,104,3.0,7.0,71,0.00,,,0.00,,2013-03-07 13:53:00,
2013-03-07 08:01:00,28.0,18.0,30.29,East,85,3.0,9.0,67,0.00,,,0.00,,2013-03-07 14:01:00,
2013-03-07 08:12:00,28.0,18.0,30.29,East,85,3.0,9.0,67,0.00,,,0.00,,2013-03-07 14:12:00,
2013-03-07 08:22:00,29.0,19.0,30.29,ESE,112,9.0,11.0,65,0.00,,,0.00,,2013-03-07 14:22:00,
2013-03-07 08:32:00,30.0,19.0,30.29,ESE,121,5.0,9.0,63,0.00,,,0.00,,2013-03-07 14:32:00,
2013-03-07 08:42:00,30.0,19.0,30.29,ESE,121,5.0,9.0,63,0.00,,,0.00,,2013-03-07 14:42:00,
2013-03-07 08:54:00,31.0,19.0,30.28,SE,130,7.0,14.0,61,0.00,,,0.00,,2013-03-07 14:54:00,
2013-03-07 09:02:00,32.0,19.0,30.28,SE,124,6.0,11.0,59,0.00,,,0.00,,2013-03-07 15:02:00,
2013-03-07 09:12:00,32.0,19.0,30.28,SE,124,6.0,11.0,59,0.00,,,0.00,,2013-03-07 15:12:00,
2013-03-07 09:22:00,33.0,19.0,30.29,SE,127,7.0,12.0,57,0.00,,,0.00,,2013-03-07 15:22:00,
2013-03-07 09:32:00,34.0,20.0,30.29,SE,131,6.0,13.0,55,0.00,,,0.00,,2013-03-07 15:32:00,
2013-03-07 09:42:00,34.0,20.0,30.29,SE,131,6.0,13.0,55,0.00,,,0.00,,2013-03-07 15:42:00,
2013-03-07 09:53:00,35.0,20.0,30.28,SE,125,6.0,12.0,55,0.00,,,0.00,,2013-03-07 15:53:00,
2013-03-07 10:02:00,36.0,21.0,30.27,ESE,117,11.0,14.0,53,0.00,,,0.00,,2013-03-07 16:02:00,
2013-03-07 10:23:00,37.0,21.0,30.28,ESE,114,9.0,14.0,52,0.00,,,0.00,,2013-03-07 16:23:00,
2013-03-07 10:32:00,37.0,21.0,30.27,SE,124,8.0,12.0,51,0.00,,,0.00,,2013-03-07 16:32:00,
2013-03-07 10:42:00,37.0,21.0,30.27,SE,124,8.0,12.0,51,0.00,,,0.00,,2013-03-07 16:42:00,
2013-03-07 10:53:00,38.0,22.0,30.28,ESE,123,9.0,11.0,51,0.00,,,0.00,,2013-03-07 16:53:00,
2013-03-07 11:02:00,39.0,22.0,30.28,SE,128,7.0,10.0,50,0.00,,,0.00,,2013-03-07 17:02:00,
2013-03-07 11:12:00,39.0,22.0,30.28,SE,128,7.0,10.0,50,0.00,,,0.00,,2013-03-07 17:12:00,
2013-03-07 11:22:00,40.0,22.0,30.27,ESE,120,6.0,11.0,49,0.00,,,0.00,,2013-03-07 17:22:00,
2013-03-07 11:32:00,40.0,22.0,30.27,ESE,116,9.0,11.0,48,0.00,,,0.00,,2013-03-07 17:32:00,
2013-03-07 11:43:00,40.0,22.0,30.27,ESE,116,9.0,11.0,48,0.00,,,0.00,,2013-03-07 17:43:00,
2013-03-07 11:54:00,40.0,22.0,30.26,SE,132,6.0,10.0,49,0.00,,,0.00,,2013-03-07 17:54:00,
2013-03-07 12:03:00,41.0,22.0,30.26,SE,138,10.0,12.0,47,0.00,,,0.00,,2013-03-07 18:03:00,
2013-03-07 12:12:00,41.0,22.0,30.26,SE,138,10.0,12.0,47,0.00,,,0.00,,2013-03-07 18:12:00,
2013-03-07 12:22:00,41.0,22.0,30.25,ESE,110,5.0,12.0,47,0.00,,,0.00,,2013-03-07 18:22:00,
2013-03-07 12:32:00,41.0,23.0,30.24,SE,125,7.0,10.0,48,0.00,,,0.00,,2013-03-07 18:32:00,
2013-03-07 12:42:00,41.0,23.0,30.24,SE,125,7.0,10.0,48,0.00,,,0.00,,2013-03-07 18:42:00,
2013-03-07 12:52:00,42.0,24.0,30.25,East,100,5.0,9.0,48,0.00,,,0.00,,2013-03-07 18:52:00,
2013-03-07 13:02:00,41.0,23.0,30.22,ESE,104,5.0,11.0,48,0.00,,,0.00,,2013-03-07 19:02:00,
2013-03-07 13:12:00,41.0,23.0,30.23,ESE,116,2.0,11.0,49,0.00,,,0.00,,2013-03-07 19:12:00,
2013-03-07 13:23:00,41.0,23.0,30.23,ESE,116,2.0,11.0,49,0.00,,,0.00,,2013-03-07 19:23:00,
2013-03-07 13:34:00,41.0,23.0,30.21,ESE,107,8.0,10.0,49,0.00,,,0.00,,2013-03-07 19:34:00,
2013-03-07 13:43:00,41.0,23.0,30.21,ESE,107,8.0,10.0,49,0.00,,,0.00,,2013-03-07 19:43:00,
2013-03-07 13:53:00,42.0,24.0,30.20,SE,132,7.0,11.0,49,0.00,,,0.00,,2013-03-07 19:53:00,
2013-03-07 14:02:00,41.0,24.0,30.20,ESE,112,6.0,8.0,50,0.00,,,0.00,,2013-03-07 20:02:00,
2013-03-07 14:13:00,41.0,24.0,30.20,ESE,112,6.0,8.0,50,0.00,,,0.00,,2013-03-07 20:13:00,
2013-03-07 14:22:00,41.0,23.0,30.20,SE,130,8.0,13.0,49,0.00,,,0.00,,2013-03-07 20:22:00,
2013-03-07 14:32:00,41.0,24.0,30.18,ESE,117,8.0,11.0,50,0.00,,,0.00,,2013-03-07 20:32:00,
2013-03-07 14:42:00,41.0,24.0,30.18,ESE,117,8.0,11.0,50,0.00,,,0.00,,2013-03-07 20:42:00,
2013-03-07 14:54:00,41.0,24.0,30.19,SE,131,9.0,11.0,50,0.00,,,0.00,,2013-03-07 20:54:00,
2013-03-07 15:02:00,42.0,25.0,30.18,ESE,117,8.0,12.0,50,0.00,,,0.00,,2013-03-07 21:02:00,
2013-03-07 15:12:00,42.0,25.0,30.18,ESE,117,8.0,12.0,50,0.00,,,0.00,,2013-03-07 21:12:00,
2013-03-07 15:22:00,42.0,25.0,30.16,East,100,7.0,12.0,50,0.00,,,0.00,,2013-03-07 21:22:00,
2013-03-07 15:32:00,42.0,25.0,30.18,ESE,118,5.0,8.0,51,0.00,,,0.00,,2013-03-07 21:32:00,
2013-03-07 15:42:00,42.0,25.0,30.18,ESE,118,5.0,8.0,51,0.00,,,0.00,,2013-03-07 21:42:00,
2013-03-07 15:53:00,42.0,25.0,30.17,SE,133,7.0,11.0,51,0.00,,,0.00,,2013-03-07 21:53:00,
2013-03-07 16:01:00,42.0,25.0,30.17,SE,138,10.0,10.0,51,0.00,,,0.00,,2013-03-07 22:01:00,
2013-03-07 16:12:00,42.0,25.0,30.17,SE,138,10.0,10.0,51,0.00,,,0.00,,2013-03-07 22:12:00,
2013-03-07 16:22:00,41.0,25.0,30.16,SE,124,7.0,13.0,52,0.00,,,0.00,,2013-03-07 22:22:00,
2013-03-07 16:32:00,41.0,25.0,30.18,SE,125,8.0,14.0,53,0.00,,,0.00,,2013-03-07 22:32:00,
2013-03-07 16:42:00,41.0,25.0,30.18,SE,125,8.0,14.0,53,0.00,,,0.00,,2013-03-07 22:42:00,
2013-03-07 16:53:00,41.0,26.0,30.15,ESE,112,10.0,13.0,54,0.00,,,0.00,,2013-03-07 22:53:00,
2013-03-07 17:02:00,40.0,25.0,30.17,East,94,8.0,11.0,55,0.00,,,0.00,,2013-03-07 23:02:00,
2013-03-07 17:12:00,40.0,25.0,30.17,East,94,8.0,11.0,55,0.00,,,0.00,,2013-03-07 23:12:00,
2013-03-07 17:22:00,40.0,25.0,30.14,ENE,77,7.0,10.0,55,0.00,,,0.00,,2013-03-07 23:22:00,
2013-03-07 17:33:00,40.0,26.0,30.16,East,90,8.0,11.0,57,0.00,,,0.00,,2013-03-07 23:33:00,
2013-03-07 17:42:00,40.0,26.0,30.16,East,90,8.0,11.0,57,0.00,,,0.00,,2013-03-07 23:42:00,
2013-03-07 17:53:00,39.0,25.0,30.17,ENE,70,6.0,13.0,57,0.00,,,0.00,,2013-03-07 23:53:00,
2013-03-07 18:12:00,39.0,25.0,30.17,ESE,103,6.0,10.0,57,0.00,,,0.00,,2013-03-08 00:12:00,
2013-03-07 18:23:00,38.0,25.0,30.17,East,88,4.0,6.0,59,0.00,,,0.00,,2013-03-08 00:23:00,
2013-03-07 18:34:00,38.0,25.0,30.17,East,92,8.0,10.0,59,0.00,,,0.00,,2013-03-08 00:34:00,
2013-03-07 18:43:00,38.0,25.0,30.17,East,92,8.0,10.0,59,0.00,,,0.00,,2013-03-08 00:43:00,
2013-03-07 18:53:00,38.0,25.0,30.17,ENE,71,7.0,12.0,60,0.00,,,0.00,,2013-03-08 00:53:00,
2013-03-07 19:02:00,37.0,24.0,30.17,ESE,105,7.0,11.0,60,0.00,,,0.00,,2013-03-08 01:02:00,
2013-03-07 19:11:00,37.0,24.0,30.17,ESE,105,7.0,11.0,60,0.00,,,0.00,,2013-03-08 01:11:00,
2013-03-07 19:21:00,37.0,25.0,30.18,East,88,8.0,14.0,61,0.00,,,0.00,,2013-03-08 01:21:00,
2013-03-07 19:32:00,37.0,25.0,30.19,East,92,7.0,12.0,61,0.00,,,0.00,,2013-03-08 01:32:00,
2013-03-07 19:42:00,37.0,25.0,30.19,East,92,7.0,12.0,61,0.00,,,0.00,,2013-03-08 01:42:00,
2013-03-07 19:52:00,37.0,25.0,30.18,East,94,7.0,11.0,61,0.00,,,0.00,,2013-03-08 01:52:00,
2013-03-07 20:01:00,37.0,25.0,30.18,ENE,76,8.0,12.0,61,0.00,,,0.00,,2013-03-08 02:01:00,
2013-03-07 20:11:00,37.0,25.0,30.19,ENE,78,8.0,13.0,62,0.00,,,0.00,,2013-03-08 02:11:00,
2013-03-07 20:21:00,37.0,25.0,30.19,ENE,78,8.0,13.0,62,0.00,,,0.00,,2013-03-08 02:21:00,
2013-03-07 20:31:00,37.0,26.0,30.18,East,80,9.0,11.0,63,0.00,,,0.00,,2013-03-08 02:31:00,
2013-03-07 20:42:00,37.0,26.0,30.18,East,80,9.0,11.0,63,0.00,,,0.00,,2013-03-08 02:42:00,
2013-03-07 20:53:00,36.0,25.0,30.19,East,80,7.0,12.0,63,0.00,,,0.00,,2013-03-08 02:53:00,
2013-03-07 21:02:00,36.0,25.0,30.17,ENE,75,11.0,12.0,63,0.00,,,0.00,,2013-03-08 03:02:00,
2013-03-07 21:11:00,36.0,25.0,30.17,ENE,75,11.0,12.0,63,0.00,,,0.00,,2013-03-08 03:11:00,
2013-03-07 21:22:00,36.0,25.0,30.19,East,94,7.0,13.0,63,0.00,,,0.00,,2013-03-08 03:22:00,
2013-03-07 21:32:00,36.0,25.0,30.19,East,82,8.0,12.0,63,0.00,,,0.00,,2013-03-08 03:32:00,
2013-03-07 21:42:00,36.0,25.0,30.19,East,82,8.0,12.0,63,0.00,,,0.00,,2013-03-08 03:42:00,
2013-03-07 21:52:00,36.0,25.0,30.21,East,98,8.0,12.0,64,0.00,,,0.00,,2013-03-08 03:52:00,
2013-03-07 22:01:00,35.0,24.0,30.19,East,91,10.0,15.0,65,0.00,,,0.00,,2013-03-08 04:01:00,
2013-03-07 22:11:00,35.0,25.0,30.18,East,86,8.0,11.0,66,0.00,,,0.00,,2013-03-08 04:11:00,
2013-03-07 22:21:00,35.0,25.0,30.18,East,86,8.0,11.0,66,0.00,,,0.00,,2013-03-08 04:21:00,
2013-03-07 22:32:00,35.0,25.0,30.19,East,83,8.0,14.0,66,0.00,,,0.00,,2013-03-08 04:32:00,
2013-03-07 22:42:00,35.0,25.0,30.19,East,83,8.0,14.0,66,0.00,,,0.00,,2013-03-08 04:42:00,
2013-03-07 22:52:00,35.0,25.0,30.20,East,87,7.0,10.0,66,0.00,,,0.00,,2013-03-08 04:52:00,
2013-03-07 23:02:00,35.0,25.0,30.19,East,93,5.0,12.0,66,0.00,,,0.00,,2013-03-08 05:02:00,
2013-03-07 23:12:00,35.0,25.0,30.19,East,93,5.0,12.0,66,0.00,,,0.00,,2013-03-08 05:12:00,
2013-03-07 23:22:00,35.0,25.0,30.20,East,96,5.0,10.0,66,0.00,,,0.00,,2013-03-08 05:22:00,
2013-03-07 23:32:00,35.0,25.0,30.19,ESE,104,5.0,11.0,66,0.00,,,0.00,,2013-03-08 05:32:00,
2013-03-07 23:42:00,35.0,25.0,30.19,ESE,104,5.0,11.0,66,0.00,,,0.00,,2013-03-08 05:42:00,
2013-03-07 23:52:00,35.0,25.0,30.20,East,98,8.0,12.0,66,0.00,,,0.00,,2013-03-08 05:52:00,